User: anonymous   Login
Location: Unspecified
(0.0000°N, 0.0000°E)
Time: 12:09:22
(UTC+00:00)
Language:

Vela 3B - Orbit

View from above orbital plane
View from above orbital plane
View from above satellite
View from above satellite

Ground track
Ground track

The orbit data is extracted from the following two-line orbital elements,

1 01459U 65058B   16215.28725181 -.00001300  00000-0  00000+0 0  9996
2 01459   7.7524  63.8414 4479591 293.5832 358.7974  0.21406725 40322
Epoch (UTC): 02 August 2016 06:53:38
Eccentricity: 0.4479591
inclination: 7.7524°
perigee height: 58785 km
apogee height: 164539 km
right ascension of ascending node: 63.8414°
argument of perigee: 293.5832°
revolutions per day: 0.21406725
mean anomaly at epoch: 358.7974°
orbit number at epoch: 4032

The dashed part of the orbit path shows where the satellite is in the earth's shadow,  

DLR